Location: Ann Arbor
(42.2710°N, 83.7260°W)
Time: 07:02:03
(UTC-04:00)

OTV 5 (USA 277) - Visible Passes

Search period start: 22 July 2018 00:00
Search period end: 01 August 2018 00:00
Orbit: 312 x 321 km, 54.5° (Epoch: 05 July)

Date Brightness Start Highest point End Pass type
(mag) Time Alt. Az. Time Alt. Az. Time Alt. Az.
27 Jul ? 05:39:30 10° SSE 05:41:09 15° SE 05:42:48 10° E visible
30 Jul ? 04:49:27 21° SSE 04:50:07 24° SE 04:52:23 10° ENE visible
31 Jul ? 05:03:28 34° SW 05:04:27 73° SE 05:07:09 10° NE visible
